Home > Weather > Brandon > Past weeks

Flag for Canada Past Weather in Brandon, Manitoba, Canada — Yesterday and Last 2 Weeks

Now
64 °F

Partly sunny.


Feels Like: 64 °F
Forecast: 53 / 63 °F
Wind: 23 mph from Southwest

Location: Brandon

Current Time: Jun 25, 2016 at 7:58:25 PM

Latest Report: Jun 25, 2016 at 7:00 PM


Visibility: 15 mi

Pressure: 29.62 "Hg

Humidity: 56%

Dew Point: 48 °F

Location of BrandonLocation

Past Weather in Brandon — Graph

°F

Brandon Temperature Yesterday

Maximum temperature yesterday: 77 °F (at 3:00 PM)
Minimum temperature yesterday: 50 °F (at 5:00 AM)
Average temperature yesterday: 67 °F

High & Low Weather Summary for the Past Weeks

 TemperatureHumidityPressure
High82 °F (Jun 10, 6:00 PM)100% (Jun 12, 6:52 AM)30.22 "Hg (Jun 12, 6:52 AM)
Low45 °F (Jun 13, 5:00 AM)30% (Jun 10, 6:00 PM)29.51 "Hg (Jun 25, 6:00 AM)
Average64 °F72%29.95 "Hg
* Reported Jun 10 6:00 PM — Jun 25 6:00 PM, Brandon, Weather by CustomWeather, © 2016

Note: Actual official high and low records may vary slightly from our data, if they occured in-between our weather recording intervals... More about our weather records

Advertising

Brandon Weather History for the Previous 24 Hours

Scroll right to see more
 ConditionsComfort  
Time TempWeatherWind HumidityBarometerVisibility
6:00 PM
Sat, Jun 25
64 °FPartly sunny.14 mph60%29.65 "Hg15 mi
5:00 PM70 °FScattered clouds.28 mph53%29.65 "Hg15 mi
4:00 PM70 °FScattered clouds.33 mph53%29.66 "Hg15 mi
3:00 PM72 °FPassing clouds.28 mph53%29.66 "Hg15 mi
2:00 PM72 °FPassing clouds.24 mph57%29.65 "Hg15 mi
1:00 PM73 °FScattered clouds.18 mph69%29.64 "Hg15 mi
12:00 PM75 °FBroken clouds.15 mph69%29.64 "Hg15 mi
11:00 AM73 °FBroken clouds.9 mph74%29.65 "Hg15 mi
10:00 AM70 °FBroken clouds.6 mph73%29.66 "Hg15 mi
9:00 AM66 °FPartly sunny.13 mph83%29.67 "Hg15 mi
8:00 AM64 °FPartly sunny.9 mph83%29.68 "Hg20 mi
7:00 AM64 °FScattered clouds.7 mph83%29.62 "Hg15 mi
6:00 AM66 °FPartly cloudy.21 mph68%29.51 "Hg15 mi
5:00 AM64 °FMostly cloudy.31 mph78%29.52 "Hg15 mi
4:00 AM61 °FSprinkles. Fog.47 mph94%29.53 "Hg6 mi
3:54 AM61 °FLots of rain. Fog.48 mph94%29.53 "Hg4 mi
3:00 AM63 °FThunderstorms. Overcast.17 mph94%29.61 "Hg8 mi
2:00 AM64 °FThunderstorms. Mostly cloudy.7 mph88%29.67 "Hg8 mi
1:49 AM63 °FThunderstorms. Mostly cloudy.9 mph94%29.67 "Hg8 mi
1:00 AM66 °FPartly cloudy.7 mph94%29.59 "Hg15 mi
12:00 AM68 °FPassing clouds.12 mph94%29.63 "Hg15 mi
11:00 PM
Fri, Jun 24
68 °FPassing clouds.9 mph88%29.67 "Hg15 mi
10:00 PM70 °FScattered clouds.8 mph88%29.69 "Hg15 mi
9:00 PM73 °FScattered clouds.8 mph83%29.70 "Hg15 mi
8:00 PM77 °FWarm.12 mph74%29.71 "Hg15 mi
7:00 PM77 °FBroken clouds.13 mph69%29.74 "Hg15 mi
Weather by CustomWeather, © 2016

See weather overviewHow to use our weather pages